Frying Pan Shoals, NC (41013)

Conditions for Die Lunae

Daily
Weekly
Monthly
Marine Data Graph

Current Weather/Wave Observations

Air Temperature: 80° F
Humidity: 64
Wind direction (W Dir): Magis Auster quam Zephyrus (195 - 204 Degrees)
Wind Speed (W Spd): 9.7 kts (11.2 mph)
Wind Gust (W Spd): 11.7 kts (13.4 mph)
Dominant Wave Period (DWP): 6 sec
Dominant Wave Height (DWH): 2.30 ft
Dominant Wave Range (DWR): exactly 2.3 ft
Wind Wave Period (WWP): 4 sec
Wind Wave Height (WWH): 1.64 ft
Wind Wave Range (WWR): 0.82 - 2.46 ft
Wave Swell Period (WSP): 6 sec
Wave Swell Height (WSH): 1.64 ft
Wave Swell Range (WSR): 0.82 - 2.46 ft
Atmospheric Pressure (AP): 30.16 in

Updated: 09:50 PM EDT die 15o October, anno 2018

Marine & Boating Location Search

Enter a coastal zip code for marine weather.

Current Wave Detail Observations

Water Depth: 79 ft
Wave Height: 2.30 ft
Spectral Peak Period: 5.9 sec
Average Wave Period: 4.4 sec
Sampling Interval: 0.6 sec
Wave Record: 2400 sec

Updated: 10:00 PM EDT die 15o October, anno 2018

General Information

Location: 33.436 North -77.743 West
Buoy Type: 2.3-meter foam discus buoy
Buoy Hull: 2.3D01
Payload: SCOOP payload
Owned by: NDBC
Windspeed: Measured by obtained from anemometer
Sea Surface: Measured by Intake
Note: Right whales are active off NC from November to April. Speed restrictions of 10 knots apply to vessels 65 feet or greater in specific areas and times along the mid-Atlantic coast. To learn more about right whales and rules protecting them, go to: http://www.nmfs.noaa.gov/pr/shipstrike/

Weather and Wave Data

Time Temp Humidity Wind Dominant Wave Wind Wave Wave Swell Pressure
  Air
(°F)
Water
(°F)
  Dir Speed
(kts)
Speed
(mph)
Period
(sec)
Height
(ft)
Range
(ft)
Period
(sec)
Height
(ft)
Range
(ft)
Period
(sec)
Height
(ft)
Range
(ft)
Atmo.
(in)
Tend.
(in)
20:00 79 81 58 Inter Austrum et Eurum 11.7 13.4 - - - - - - 30.15 +0.02
20:10 79 81 57 Magis Auster quam Eurus 11.7 13.4 - - - - - - 30.16 -
20:20 79 81 57 Inter Austrum et Eurum 11.7 13.4 - - - - - - 30.16 -
20:40 79 81 58 Magis Auster quam Eurus 11.7 13.4 - - - - - - 30.17 -
20:50 79
-
59 Magis Auster quam Eurus 11.7 13.4 4 2.62 exactly 2.6 4 1.64 0.82 - 2.46 8 1.64 0.82 - 2.46 30.17 -
21:10 79 81 56 Inter Austrum et Eurum 11.7 13.4 - - - - - - 30.17 -
21:20 79 81 57 Inter Austrum et Eurum 9.7 11.2 - - - - - - 30.18 -
21:30 79 81 58 Magis Auster quam Eurus 9.7 11.2 - - - - - - 30.18 -
21:40 79 81 58 Magis Auster quam Eurus 11.7 13.4 - - - - - - 30.18 -
21:50 79
-
58 Inter Austrum et Eurum 11.7 13.4 5 2.30 exactly 2.3 5 1.64 0.82 - 2.46 9 1.64 0.82 - 2.46 30.18 -
22:20 79 81 57 Inter Austrum et Eurum 11.7 13.4 - - - - - -
-
-
22:30 79 81 57 Inter Austrum et Eurum 11.7 13.4 - - - - - - 30.18 -
22:40 79 81 58 Magis Auster quam Eurus 13.6 15.7 - - - - - - 30.17 -
23:10 79 81 57 Inter Austrum et Eurum 13.6 15.7 - - - - - - 30.17 -
23:20 79 81 57 Inter Austrum et Eurum 13.6 15.7 - - - - - - 30.17 -
23:30 79 81 56 Inter Austrum et Eurum 13.6 15.7 - - - - - - 30.17 -
23:40 79 81 58 Inter Austrum et Eurum 11.7 13.4 - - - - - - 30.18 -
23:50 79 81 57 Inter Austrum et Eurum 11.7 13.4 8 2.62 exactly 2.6 4 1.64 0.82 - 2.46 8 1.64 0.82 - 2.46 30.18 -
00:10 79 81 58 Inter Austrum et Eurum 13.6 15.7 - - - - - - 30.17 -
00:20 79 81 57 Inter Austrum et Eurum 13.6 15.7 - - - - - - 30.17 -
00:30 79 81 57 Inter Austrum et Eurum 13.6 15.7 - - - - - - 30.17 -
00:40 79 81 57 Inter Austrum et Eurum 13.6 15.7 - - - - - - 30.17 -
00:50 79 81 56 Inter Austrum et Eurum 11.7 13.4 8 2.62 exactly 2.6 5 1.64 0.82 - 2.46 8 1.64 0.82 - 2.46 30.17 -
01:10 79 81 56 Inter Austrum et Eurum 11.7 13.4 - - - - - - 30.17 -
01:20 79 81 57 Magis Auster quam Eurus 11.7 13.4 - - - - - - 30.17 -
01:30 79 81 57 Magis Auster quam Eurus 11.7 13.4 - - - - - - 30.17 -
01:40 79 81 57 Magis Auster quam Eurus 11.7 13.4 - - - - - - 30.17 -
01:50 79 81 56 Magis Auster quam Eurus 11.7 13.4 10 2.62 exactly 2.6 4 1.64 0.82 - 2.46 10 1.64 0.82 - 2.46 30.18 -
02:10 79 81 57 Magis Auster quam Eurus 11.7 13.4 - - - - - - 30.17 -
02:20 79 81 56 Magis Auster quam Eurus 11.7 13.4 - - - - - - 30.17 -
02:30 79 81 56 Magis Auster quam Eurus 11.7 13.4 - - - - - - 30.17 -
02:40 79 81 55 Magis Auster quam Eurus 9.7 11.2 - - - - - - 30.17 -
02:50 79 81 56 Magis Auster quam Eurus 9.7 11.2 3 2.62 exactly 2.6 3 1.64 0.82 - 2.46 8 1.64 0.82 - 2.46 30.17 -
03:00 79 81 56 Magis Auster quam Eurus 9.7 11.2 - - - - - - 30.17 -
03:20 79 81 57 Magis Auster quam Eurus 9.7 11.2 - - - - - - 30.17 -
03:40 79 81 56 Magis Auster quam Eurus 9.7 11.2 - - - - - - 30.17 -
03:50 79 81 57 Magis Auster quam Eurus 9.7 11.2 4 2.30 exactly 2.3 4 1.64 0.82 - 2.46 4 1.64 0.82 - 2.46 30.17 -
04:10 79 81 58 Magis Auster quam Eurus 7.8 8.9 - - - - - - 30.17 -
04:20 79 81 57 Magis Auster quam Eurus 7.8 8.9 - - - - - - 30.17 -
04:30 79 81 59 Magis Auster quam Eurus 9.7 11.2 - - - - - - 30.17 -
04:40 79 81 58 Magis Auster quam Eurus 7.8 8.9 - - - - - - 30.17 -
04:50 79 81 57 Magis Auster quam Eurus 7.8 8.9 4 2.30 exactly 2.3 4 1.64 0.82 - 2.46 9 1.64 0.82 - 2.46 30.17 -
05:20 79 81 59 Magis Auster quam Eurus 7.8 8.9 - - - - - - 30.16 -
05:30 79 81 61 Magis Auster quam Eurus 7.8 8.9 - - - - - - 30.17 -
05:40 79 81 59 Magis Auster quam Eurus 7.8 8.9 - - - - - - 30.17 -
05:50 79 81 59 Magis Auster quam Eurus 7.8 8.9 4 2.30 exactly 2.3 4 1.64 0.82 - 2.46 4 1.64 0.82 - 2.46 30.17 -
06:10 79 81 61 Magis Auster quam Eurus 7.8 8.9 - - - - - - 30.17 -
06:20 79 81 61 Magis Auster quam Eurus 7.8 8.9 - - - - - - 30.17 -
06:40 79 81 61 Magis Auster quam Eurus 7.8 8.9 - - - - - - 30.18 -
06:50 79 81 62 Magis Auster quam Eurus 7.8 8.9 8 2.30 exactly 2.3 4 1.64 0.82 - 2.46 8 1.64 0.82 - 2.46 30.18 -
07:10 79 81 62 Magis Auster quam Eurus 9.7 11.2 - - - - - - 30.19 -
07:20 79 81 64 Magis Auster quam Eurus 9.7 11.2 - - - - - - 30.19 -
07:30 79 81 64 Magis Auster quam Eurus 9.7 11.2 - - - - - - 30.19 -
07:40 79 81 63 Magis Auster quam Eurus 9.7 11.2 - - - - - - 30.18 -
07:50 79 81 64 Magis Auster quam Eurus 11.7 13.4 8 2.30 exactly 2.3 4 1.64 0.82 - 2.46 8 1.64 0.82 - 2.46 30.19 -
08:20 79 81 65 Magis Auster quam Eurus 11.7 13.4 - - - - - - 30.19 -
08:30 79 81 64 Magis Auster quam Eurus 11.7 13.4 - - - - - - 30.19 -
08:40 79 81 64 Magis Auster quam Eurus 11.7 13.4 - - - - - - 30.19 -
08:50 79 81 63 Magis Auster quam Eurus 11.7 13.4 6 2.30 exactly 2.3 5 1.64 0.82 - 2.46 6 1.64 0.82 - 2.46 30.20 -
09:10 79 81 63 Magis Auster quam Eurus 11.7 13.4 - - - - - - 30.20 -
09:20 80 81 60 Magis Auster quam Eurus 11.7 13.4 - - - - - - 30.20 -
09:30 80 81 59 Magis Auster quam Eurus 11.7 13.4 - - - - - - 30.20 -
09:40 80 81 59 Magis Auster quam Eurus 11.7 13.4 - - - - - - 30.20 -
10:10 80 81 59 Magis Auster quam Eurus 11.7 13.4 - - - - - - 30.21 -
10:20 80 81 59 Magis Auster quam Eurus 11.7 13.4 - - - - - - 30.21 -
10:50 80 81 60 Auster 9.7 11.2 8 2.30 exactly 2.3 4 1.64 0.82 - 2.46 8 1.64 0.82 - 2.46 30.20 -
11:00 80 81 60 Auster 9.7 11.2 - - - - - - 30.20 +0.01
11:10 80 81 59 Magis Auster quam Eurus 11.7 13.4 - - - - - - 30.20 -
11:20 80 81 59 Magis Auster quam Eurus 11.7 13.4 - - - - - - 30.20 -
11:30 80 81 59 Magis Auster quam Eurus 9.7 11.2 - - - - - - 30.20 -
11:40 80 81 59 Magis Auster quam Eurus 9.7 11.2 - - - - - - 30.20 -
11:50 80 81 59 Magis Auster quam Eurus 9.7 11.2 7 2.62 exactly 2.6 5 1.64 0.82 - 2.46 7 1.64 0.82 - 2.46 30.20 -
12:10 80 81 59 Auster 9.7 11.2 - - - - - - 30.19 -
12:20 80 81 60 Auster 9.7 11.2 - - - - - - 30.19 -
12:40 80 81 61 Magis Auster quam Eurus 9.7 11.2 - - - - - - 30.19 -
13:10 80 81 60 Auster 5.8 6.7 - - - - - - 30.18 -
13:20 80 81 60 Auster 5.8 6.7 - - - - - - 30.18 -
13:30 80 81 60 Auster 5.8 6.7 - - - - - - 30.17 -
13:40 80 81 61 Auster 7.8 8.9 - - - - - - 30.17 -
13:50 80 81 61 Auster 7.8 8.9 6 2.62 exactly 2.6 3 1.64 0.82 - 2.46 6 1.64 0.82 - 2.46 30.16 -
14:10 80 81 62 Auster 7.8 8.9 - - - - - - 30.15 -
14:20 80 81 62 Auster 7.8 8.9 - - - - - - 30.15 -
14:30 80 81 61 Auster 7.8 8.9 - - - - - - 30.15 -
14:40 80 81 63 Auster 7.8 8.9 - - - - - - 30.14 -
14:50 80
-
62 Auster 5.8 6.7 6 2.62 exactly 2.6 4 1.64 0.82 - 2.46 6 1.64 0.82 - 2.46 30.14 -
15:10 80 82 61 Auster 5.8 6.7 - - - - - - 30.14 -
15:20 80 81 61 Auster 5.8 6.7 - - - - - - 30.14 -
15:30 80 82 62 Auster 5.8 6.7 - - - - - - 30.14 -
15:40 80 82 62 Auster 5.8 6.7 - - - - - - 30.14 -
15:50 80 82 62 Auster 5.8 6.7 8 2.30 exactly 2.3 3 1.64 0.82 - 2.46 8 1.64 0.82 - 2.46 30.14 -
16:10 80 82 64 Auster 7.8 8.9 - - - - - - 30.14 -
16:20 80 82 61 Auster 9.7 11.2 - - - - - - 30.14 -
16:30 81 82 59 Auster 9.7 11.2 - - - - - - 30.14 -
16:40 80 81 61 Auster 9.7 11.2 - - - - - - 30.14 -
16:50 80 81 60 Auster 9.7 11.2 6 2.30 exactly 2.3 4 1.64 0.82 - 2.46 6 1.64 0.82 - 2.46 30.13 -
17:10 81 81 58 Auster 9.7 11.2 - - - - - - 30.13 -
17:20 81 81 58 Auster 9.7 11.2 - - - - - - 30.13 -
17:30 81 81 58 Auster 9.7 11.2 - - - - - - 30.13 -
17:40 80 81 60 Auster 11.7 13.4 - - - - - - 30.14 -
17:50 81 81 57 Auster 11.7 13.4 8 2.30 exactly 2.3 5 1.64 0.82 - 2.46 8 1.64 0.82 - 2.46 30.13 -
18:00 81 81 57 Auster 11.7 13.4 - - - - - - 30.13 -0.01
18:10 80 81 59 Auster 11.7 13.4 - - - - - - 30.13 -
18:20 80 81 60 Auster 11.7 13.4 - - - - - - 30.14 -
18:30 80
-
60 Auster 11.7 13.4 - - - - - - 30.14 -
18:40 80 81 60 Auster 11.7 13.4 - - - - - - 30.14 -
18:50 80 81 59 Auster 11.7 13.4 7 2.30 exactly 2.3 4 1.64 0.82 - 2.46 7 1.64 0.82 - 2.46 30.14 -
19:10 80 81 61 Auster 9.7 11.2 - - - - - - 30.14 -
19:20 80 81 61 Auster 9.7 11.2 - - - - - - 30.14 -
19:30 80 81 60 Auster 9.7 11.2 - - - - - - 30.14 -
19:40 80 81 62 Auster 9.7 11.2 - - - - - - 30.14 -
19:50 80 81 61 Auster 9.7 11.2 6 2.62 exactly 2.6 5 1.64 0.82 - 2.46 6 1.64 0.82 - 2.46 30.14 -
20:10 80 81 61 Auster 9.7 11.2 - - - - - - 30.14 -
20:20 80 81 60 Magis Auster quam Zephyrus 9.7 11.2 - - - - - - 30.15 -
20:30 80 81 61 Auster 9.7 11.2 - - - - - - 30.15 -
20:40 80 81 62 Auster 9.7 11.2 - - - - - - 30.15 -
20:50 80 81 64 Auster 9.7 11.2 7 2.30 exactly 2.3 4 1.64 0.82 - 2.46 7 1.64 0.82 - 2.46 30.15 -
21:10 80
-
64 Auster 9.7 11.2 - - - - - - 30.16 -
21:20 80 81 64 Auster 9.7 11.2 - - - - - - 30.16 -
21:40 80 81 65 Auster 9.7 11.2 - - - - - - 30.16 -
21:50 80 81 64 Magis Auster quam Zephyrus 9.7 11.2 6 2.30 exactly 2.3 4 1.64 0.82 - 2.46 6 1.64 0.82 - 2.46 30.16 -

Detailed Wave Spectra

Time Water Depth Wave Height Spectral Peak Period Average Wave Period Sampling Interval Wave Record
21:00 79 ft 2.69 ft 4.2 sec 4.1 sec 0.6 sec 2400 sec
23:00 79 ft 2.46 ft 7.1 sec 4.2 sec 0.6 sec 2400 sec
00:00 79 ft 2.56 ft 8.3 sec 4.1 sec 0.6 sec 2400 sec
01:00 79 ft 2.53 ft 8.3 sec 4.1 sec 0.6 sec 2400 sec
02:00 79 ft 2.56 ft 10.0 sec 4.1 sec 0.6 sec 2400 sec
04:00 79 ft 2.36 ft 4.3 sec 4.3 sec 0.6 sec 2400 sec
05:00 79 ft 2.40 ft 4.0 sec 4.2 sec 0.6 sec 2400 sec
06:00 79 ft 2.20 ft 4.3 sec 4.4 sec 0.6 sec 2400 sec
07:00 79 ft 2.23 ft 8.3 sec 4.5 sec 0.6 sec 2400 sec
08:00 79 ft 2.23 ft 8.3 sec 4.4 sec 0.6 sec 2400 sec
09:00 79 ft 2.30 ft 6.3 sec 4.3 sec 0.6 sec 2400 sec
10:00 79 ft 2.20 ft 5.3 sec 4.2 sec 0.6 sec 2400 sec
12:00 79 ft 2.46 ft 6.7 sec 4.5 sec 0.6 sec 2400 sec
13:00 79 ft 2.49 ft 9.1 sec 4.5 sec 0.6 sec 2400 sec
14:00 79 ft 2.49 ft 6.3 sec 4.8 sec 0.6 sec 2400 sec
15:00 79 ft 2.49 ft 5.9 sec 4.9 sec 0.6 sec 2400 sec
16:00 79 ft 2.33 ft 7.7 sec 5.2 sec 0.6 sec 2400 sec
17:00 79 ft 2.46 ft 6.3 sec 5.0 sec 0.6 sec 2400 sec
19:00 79 ft 2.43 ft 7.1 sec 4.6 sec 0.6 sec 2400 sec
20:00 79 ft 2.49 ft 5.6 sec 4.4 sec 0.6 sec 2400 sec
21:00 79 ft 2.36 ft 7.1 sec 4.5 sec 0.6 sec 2400 sec
22:00 79 ft 2.30 ft 5.9 sec 4.4 sec 0.6 sec 2400 sec